EWG18J EDDH-LOWG

Flight info

Callsign EWG18J
Flight time 1h 15m
Altitude 37000
Route AMLUH2G/33 AMLUH M852 DENIX DCT ZUCKA DCT ARMUT DCT LAMSI DCT LEOBE LEOBE2M
Aircraft A319/M-SDE3FGHIRWY/LB1

Departure

Time 2026-04-25 15:44
Airport Hamburg Helmut Schmidt Airport (EDDH)

Arrival

Time 2026-04-25 17:00
Airport Graz Airport (LOWG)
Time Latitude Longitude Altitude Speed Heading
2026-04-25 15:25 53.62776 10.00281 49 ft 0 kts 63°
2026-04-25 15:39 53.62775 10.00280 48 ft 2 kts 63°
2026-04-25 15:39 53.62763 10.00243 46 ft 4 kts 57°
2026-04-25 15:40 53.62748 10.00207 46 ft 4 kts 44°
2026-04-25 15:40 53.62741 10.00196 47 ft 4 kts 36°
2026-04-25 15:40 53.62713 10.00185 47 ft 1 kts 333°
2026-04-25 15:40 53.62711 10.00187 48 ft 0 kts 333°
2026-04-25 15:42 53.62723 10.00177 45 ft 4 kts 333°
2026-04-25 15:43 53.62774 10.00135 48 ft 11 kts 333°
2026-04-25 15:43 53.62855 10.00050 49 ft 16 kts 308°
2026-04-25 15:43 53.62822 9.99879 45 ft 20 kts 239°
2026-04-25 15:43 53.62837 9.99772 45 ft 13 kts 333°
2026-04-25 15:44 53.63032 9.99600 44 ft 61 kts 333°
2026-04-25 15:44 53.63591 9.99116 48 ft 120 kts 332°
2026-04-25 15:44 53.64463 9.98365 339 ft 147 kts 328°
2026-04-25 15:44 53.65373 9.97592 1206 ft 146 kts 329°
2026-04-25 15:45 53.66344 9.96750 1703 ft 169 kts 328°
2026-04-25 15:45 53.67455 9.95782 2273 ft 186 kts 328°
2026-04-25 15:45 53.68644 9.94829 3247 ft 190 kts 337°
2026-04-25 15:45 53.69081 9.94670 3603 ft 193 kts 346°
2026-04-25 15:46 53.71337 9.94650 5293 ft 198 kts 353°
2026-04-25 15:46 53.72731 9.95414 5964 ft 235 kts 22°
2026-04-25 15:46 53.73847 9.97776 6459 ft 288 kts 60°
2026-04-25 15:46 53.74067 10.01304 7198 ft 320 kts 96°
2026-04-25 15:47 53.73162 10.04786 8092 ft 331 kts 130°
2026-04-25 15:47 53.71374 10.07145 9019 ft 327 kts 163°
2026-04-25 15:47 53.69208 10.07875 9951 ft 316 kts 188°
2026-04-25 15:47 53.66976 10.07946 10534 ft 333 kts 188°
2026-04-25 15:48 53.64573 10.07969 11087 ft 348 kts 188°
2026-04-25 15:48 53.62310 10.07968 11833 ft 354 kts 188°
2026-04-25 15:48 53.59818 10.08279 12664 ft 366 kts 179°
2026-04-25 15:48 53.57322 10.09102 13513 ft 374 kts 173°
2026-04-25 15:49 53.54759 10.10264 14312 ft 380 kts 169°
2026-04-25 15:49 53.52207 10.11558 15034 ft 385 kts 168°
2026-04-25 15:49 53.49666 10.12858 15740 ft 389 kts 169°
2026-04-25 15:49 53.47049 10.14141 16444 ft 394 kts 170°
2026-04-25 15:50 53.44400 10.15372 17148 ft 398 kts 171°
2026-04-25 15:50 53.41710 10.16569 17864 ft 402 kts 171°
2026-04-25 15:50 53.38987 10.17748 18541 ft 407 kts 171°
2026-04-25 15:50 53.36228 10.18927 19157 ft 410 kts 171°
2026-04-25 15:51 53.33451 10.20116 19789 ft 414 kts 171°
2026-04-25 15:51 53.32508 10.20522 20004 ft 415 kts 171°
2026-04-25 15:51 53.27823 10.22554 21054 ft 421 kts 171°
2026-04-25 15:51 53.25087 10.23745 21663 ft 424 kts 171°
2026-04-25 15:52 53.22215 10.24988 22283 ft 428 kts 171°
2026-04-25 15:52 53.19322 10.26239 22898 ft 431 kts 171°
2026-04-25 15:52 53.16403 10.27499 23510 ft 435 kts 171°
2026-04-25 15:52 53.13464 10.28769 24056 ft 438 kts 171°
2026-04-25 15:53 53.10506 10.30048 24564 ft 441 kts 171°
2026-04-25 15:53 53.07523 10.31334 25068 ft 444 kts 170°
2026-04-25 15:53 53.04519 10.32625 25557 ft 447 kts 170°
2026-04-25 15:53 53.01501 10.33916 26052 ft 450 kts 170°
2026-04-25 15:54 52.98451 10.35222 26542 ft 453 kts 170°
2026-04-25 15:54 52.95385 10.36534 27023 ft 457 kts 170°
2026-04-25 15:54 52.92303 10.37853 27497 ft 460 kts 170°
2026-04-25 15:54 52.89191 10.39187 27968 ft 463 kts 170°
2026-04-25 15:55 52.87124 10.40072 28290 ft 465 kts 170°
2026-04-25 15:55 52.82923 10.41859 28912 ft 469 kts 170°
2026-04-25 15:55 52.79746 10.43203 29387 ft 472 kts 170°
2026-04-25 15:55 52.76600 10.44534 29851 ft 475 kts 169°
2026-04-25 15:56 52.73393 10.45892 30290 ft 478 kts 169°
2026-04-25 15:56 52.70166 10.47258 30675 ft 480 kts 169°
2026-04-25 15:56 52.66919 10.48632 31066 ft 482 kts 169°
2026-04-25 15:56 52.63667 10.50005 31451 ft 484 kts 169°
2026-04-25 15:57 52.60397 10.51379 31862 ft 485 kts 169°
2026-04-25 15:57 52.57129 10.52751 32416 ft 483 kts 169°
2026-04-25 15:57 52.53889 10.54110 32986 ft 481 kts 169°
2026-04-25 15:57 52.50652 10.55467 33546 ft 479 kts 169°
2026-04-25 15:58 52.47425 10.56819 34100 ft 477 kts 169°
2026-04-25 15:58 52.44218 10.58158 34593 ft 475 kts 169°
2026-04-25 15:58 52.41023 10.59491 35043 ft 474 kts 169°
2026-04-25 15:58 52.37836 10.60821 35482 ft 472 kts 169°
2026-04-25 15:59 52.34649 10.62150 35917 ft 471 kts 169°
2026-04-25 15:59 52.31475 10.63470 36321 ft 470 kts 169°
2026-04-25 15:59 52.28306 10.64782 36733 ft 469 kts 170°
2026-04-25 15:59 52.25145 10.66089 37005 ft 470 kts 170°
2026-04-25 16:00 52.20955 10.67821 37056 ft 467 kts 170°
2026-04-25 16:00 52.12551 10.71285 37058 ft 465 kts 170°
2026-04-25 16:01 52.06272 10.73863 37045 ft 465 kts 171°
2026-04-25 16:01 52.00033 10.76410 37048 ft 466 kts 170°
2026-04-25 16:02 51.93751 10.78966 37044 ft 466 kts 170°
2026-04-25 16:02 51.87466 10.81533 37050 ft 466 kts 170°
2026-04-25 16:03 51.81172 10.84093 37041 ft 466 kts 170°
2026-04-25 16:03 51.74887 10.86628 37042 ft 465 kts 170°
2026-04-25 16:04 51.68633 10.89171 37041 ft 457 kts 167°
2026-04-25 16:04 51.62851 10.93132 37047 ft 449 kts 158°
2026-04-25 16:05 51.57226 10.97427 37044 ft 446 kts 158°
2026-04-25 16:06 51.48818 11.03809 37048 ft 445 kts 158°
2026-04-25 16:06 51.44173 11.07324 37048 ft 444 kts 158°
2026-04-25 16:07 51.37680 11.12223 37047 ft 444 kts 158°
2026-04-25 16:07 51.32098 11.16428 37048 ft 443 kts 158°
2026-04-25 16:08 51.26521 11.20628 37054 ft 443 kts 158°
2026-04-25 16:08 51.21854 11.24134 37064 ft 442 kts 159°
2026-04-25 16:09 51.16328 11.28281 37067 ft 442 kts 159°
2026-04-25 16:09 51.10764 11.32423 37065 ft 441 kts 159°
2026-04-25 16:10 51.05214 11.36540 37079 ft 439 kts 159°
2026-04-25 16:10 50.99689 11.40644 37080 ft 437 kts 159°
2026-04-25 16:11 50.94190 11.44716 37077 ft 435 kts 159°
2026-04-25 16:11 50.88705 11.48766 37073 ft 434 kts 159°
2026-04-25 16:12 50.83238 11.52792 37062 ft 433 kts 159°
2026-04-25 16:12 50.77763 11.56806 37061 ft 433 kts 159°
2026-04-25 16:13 50.72303 11.60812 37064 ft 433 kts 159°
2026-04-25 16:13 50.66849 11.64802 37053 ft 432 kts 159°
2026-04-25 16:13 50.64127 11.66783 36702 ft 430 kts 159°
2026-04-25 16:14 50.61402 11.68764 36205 ft 431 kts 159°
2026-04-25 16:14 50.58682 11.70742 35817 ft 430 kts 158°
2026-04-25 16:14 50.55961 11.72720 35701 ft 432 kts 158°
2026-04-25 16:14 50.53225 11.74707 35568 ft 433 kts 158°
2026-04-25 16:15 50.50486 11.76692 35441 ft 434 kts 158°
2026-04-25 16:15 50.47776 11.78656 35313 ft 434 kts 158°
2026-04-25 16:15 50.45035 11.80639 35188 ft 434 kts 158°
2026-04-25 16:15 50.42288 11.82620 35065 ft 435 kts 158°
2026-04-25 16:16 50.39539 11.84599 34940 ft 435 kts 158°
2026-04-25 16:16 50.36791 11.86575 34813 ft 435 kts 158°
2026-04-25 16:16 50.34043 11.88553 34687 ft 435 kts 158°
2026-04-25 16:16 50.31297 11.90528 34566 ft 435 kts 158°
2026-04-25 16:17 50.28549 11.92499 34437 ft 435 kts 158°
2026-04-25 16:17 50.25793 11.94472 34321 ft 435 kts 158°
2026-04-25 16:17 50.23043 11.96436 34186 ft 435 kts 158°
2026-04-25 16:17 50.20290 11.98401 34070 ft 435 kts 158°
2026-04-25 16:18 50.17538 12.00366 33950 ft 435 kts 158°
2026-04-25 16:18 50.12037 12.04293 33655 ft 435 kts 158°
2026-04-25 16:18 50.09284 12.06255 33509 ft 435 kts 158°
2026-04-25 16:19 50.06537 12.08208 33372 ft 435 kts 158°
2026-04-25 16:19 50.03781 12.10167 33232 ft 435 kts 158°
2026-04-25 16:19 50.01028 12.12119 33093 ft 435 kts 158°
2026-04-25 16:20 49.95520 12.16002 32816 ft 435 kts 158°
2026-04-25 16:20 49.92761 12.17946 32678 ft 435 kts 157°
2026-04-25 16:20 49.87243 12.21832 32412 ft 435 kts 157°
2026-04-25 16:21 49.84485 12.23772 32277 ft 436 kts 157°
2026-04-25 16:21 49.81728 12.25707 32146 ft 436 kts 157°
2026-04-25 16:21 49.78962 12.27643 32012 ft 436 kts 157°
2026-04-25 16:21 49.76200 12.29575 31885 ft 436 kts 157°
2026-04-25 16:22 49.73467 12.31591 31755 ft 436 kts 152°
2026-04-25 16:22 49.70881 12.34060 31625 ft 437 kts 145°
2026-04-25 16:22 49.68467 12.36909 31497 ft 438 kts 142°
2026-04-25 16:22 49.66071 12.39815 31369 ft 438 kts 142°
2026-04-25 16:23 49.63673 12.42717 31247 ft 438 kts 142°
2026-04-25 16:23 49.61276 12.45610 31111 ft 438 kts 142°
2026-04-25 16:23 49.58908 12.48464 30995 ft 438 kts 142°
2026-04-25 16:23 49.56509 12.51349 30871 ft 438 kts 142°
2026-04-25 16:24 49.54108 12.54225 30744 ft 438 kts 142°
2026-04-25 16:24 49.51702 12.57102 30620 ft 438 kts 142°
2026-04-25 16:24 49.49299 12.59975 30500 ft 438 kts 142°
2026-04-25 16:24 49.46898 12.62847 30374 ft 437 kts 142°
2026-04-25 16:25 49.44494 12.65723 30254 ft 437 kts 142°
2026-04-25 16:25 49.39700 12.71451 29991 ft 437 kts 142°
2026-04-25 16:25 49.37298 12.74311 29851 ft 437 kts 142°
2026-04-25 16:26 49.34894 12.77167 29710 ft 437 kts 142°
2026-04-25 16:26 49.32489 12.80018 29562 ft 437 kts 142°
2026-04-25 16:26 49.30080 12.82873 29423 ft 438 kts 142°
2026-04-25 16:26 49.27674 12.85724 29284 ft 438 kts 143°
2026-04-25 16:27 49.25264 12.88573 29143 ft 438 kts 143°
2026-04-25 16:27 49.22855 12.91420 28996 ft 438 kts 143°
2026-04-25 16:27 49.20441 12.94273 28860 ft 438 kts 143°
2026-04-25 16:27 49.18030 12.97116 28724 ft 438 kts 143°
2026-04-25 16:28 49.15612 12.99960 28574 ft 439 kts 143°
2026-04-25 16:28 49.13188 13.02806 28443 ft 439 kts 143°
2026-04-25 16:28 49.10764 13.05645 28306 ft 439 kts 143°
2026-04-25 16:28 49.08344 13.08480 28167 ft 440 kts 143°
2026-04-25 16:29 49.05917 13.11324 28043 ft 440 kts 143°
2026-04-25 16:29 49.03489 13.14170 27897 ft 440 kts 143°
2026-04-25 16:29 49.01066 13.17006 27767 ft 440 kts 143°
2026-04-25 16:29 48.98636 13.19843 27634 ft 440 kts 144°
2026-04-25 16:30 48.96206 13.22673 27503 ft 440 kts 144°
2026-04-25 16:30 48.93774 13.25497 27367 ft 440 kts 144°
2026-04-25 16:30 48.91370 13.28287 27238 ft 440 kts 144°
2026-04-25 16:30 48.88940 13.31105 27049 ft 440 kts 144°
2026-04-25 16:31 48.86504 13.33931 27024 ft 440 kts 144°
2026-04-25 16:31 48.84070 13.36752 27031 ft 440 kts 144°
2026-04-25 16:31 48.81640 13.39566 27034 ft 439 kts 144°
2026-04-25 16:31 48.79211 13.42374 27027 ft 439 kts 144°
2026-04-25 16:32 48.76781 13.45178 27031 ft 439 kts 144°
2026-04-25 16:32 48.74352 13.47975 27029 ft 439 kts 144°
2026-04-25 16:32 48.71921 13.50773 27033 ft 438 kts 144°
2026-04-25 16:32 48.69496 13.53563 27030 ft 438 kts 144°
2026-04-25 16:33 48.67065 13.56351 27031 ft 438 kts 144°
2026-04-25 16:33 48.64636 13.59132 27026 ft 438 kts 144°
2026-04-25 16:33 48.62213 13.61913 27028 ft 438 kts 144°
2026-04-25 16:33 48.59792 13.64702 27030 ft 438 kts 143°
2026-04-25 16:34 48.57378 13.67493 27030 ft 437 kts 143°
2026-04-25 16:34 48.54960 13.70286 27026 ft 437 kts 143°
2026-04-25 16:34 48.52542 13.73071 27031 ft 437 kts 143°
2026-04-25 16:34 48.50124 13.75847 27029 ft 437 kts 143°
2026-04-25 16:35 48.47704 13.78616 27029 ft 437 kts 144°
2026-04-25 16:35 48.45285 13.81379 27026 ft 437 kts 143°
2026-04-25 16:35 48.42862 13.84144 27027 ft 436 kts 143°
2026-04-25 16:35 48.40444 13.86903 27028 ft 436 kts 143°
2026-04-25 16:36 48.38028 13.89661 27030 ft 436 kts 143°
2026-04-25 16:36 48.37247 13.90553 27024 ft 436 kts 143°
2026-04-25 16:36 48.33230 13.95133 27026 ft 436 kts 143°
2026-04-25 16:36 48.30816 13.97880 27031 ft 436 kts 143°
2026-04-25 16:37 48.28396 14.00630 27032 ft 436 kts 143°
2026-04-25 16:37 48.25977 14.03377 27025 ft 436 kts 143°
2026-04-25 16:37 48.23565 14.06112 27022 ft 435 kts 143°
2026-04-25 16:37 48.21144 14.08853 27027 ft 435 kts 143°
2026-04-25 16:38 48.18730 14.11582 27026 ft 435 kts 143°
2026-04-25 16:38 48.16309 14.14314 27024 ft 435 kts 143°
2026-04-25 16:38 48.13883 14.17045 27030 ft 435 kts 143°
2026-04-25 16:38 48.11463 14.19759 27031 ft 435 kts 143°
2026-04-25 16:39 48.09037 14.22481 27032 ft 436 kts 143°
2026-04-25 16:39 48.06614 14.25205 27022 ft 436 kts 143°
2026-04-25 16:39 48.04192 14.27926 27028 ft 436 kts 143°
2026-04-25 16:39 48.01770 14.30645 27032 ft 436 kts 143°
2026-04-25 16:40 47.99339 14.33364 27027 ft 436 kts 143°
2026-04-25 16:40 47.96914 14.36069 27014 ft 436 kts 143°
2026-04-25 16:40 47.94483 14.38780 27030 ft 436 kts 143°
2026-04-25 16:40 47.92054 14.41483 27028 ft 436 kts 143°
2026-04-25 16:41 47.89625 14.44190 27021 ft 436 kts 143°
2026-04-25 16:41 47.88839 14.45066 27031 ft 436 kts 143°
2026-04-25 16:41 47.82335 14.52295 27028 ft 436 kts 143°
2026-04-25 16:42 47.79933 14.54954 27021 ft 436 kts 143°
2026-04-25 16:42 47.77503 14.57641 27024 ft 436 kts 143°
2026-04-25 16:42 47.75070 14.60329 27025 ft 435 kts 143°
2026-04-25 16:42 47.72639 14.63010 27028 ft 435 kts 143°
2026-04-25 16:43 47.70204 14.65688 27028 ft 435 kts 143°
2026-04-25 16:43 47.67768 14.68367 27024 ft 436 kts 143°
2026-04-25 16:43 47.65338 14.71038 26925 ft 434 kts 143°
2026-04-25 16:43 47.62966 14.73647 26738 ft 413 kts 143°
2026-04-25 16:44 47.60706 14.76132 26470 ft 397 kts 143°
2026-04-25 16:44 47.58514 14.78540 25926 ft 389 kts 143°
2026-04-25 16:44 47.56352 14.80911 25297 ft 384 kts 144°
2026-04-25 16:44 47.54212 14.83252 24672 ft 381 kts 144°
2026-04-25 16:45 47.52803 14.84790 24297 ft 379 kts 144°
2026-04-25 16:45 47.49984 14.87872 23580 ft 375 kts 144°
2026-04-25 16:45 47.47899 14.90156 22905 ft 371 kts 144°
2026-04-25 16:45 47.45829 14.92422 22233 ft 368 kts 144°
2026-04-25 16:46 47.43776 14.94660 21616 ft 365 kts 144°
2026-04-25 16:46 47.41736 14.96874 21029 ft 362 kts 143°
2026-04-25 16:46 47.39742 14.99034 20488 ft 359 kts 143°
2026-04-25 16:46 47.39061 14.99772 20300 ft 358 kts 143°
2026-04-25 16:47 47.35759 15.03350 19428 ft 354 kts 143°
2026-04-25 16:47 47.33754 15.05474 18900 ft 351 kts 144°
2026-04-25 16:47 47.31770 15.07541 18408 ft 348 kts 144°
2026-04-25 16:47 47.29792 15.09589 17852 ft 346 kts 144°
2026-04-25 16:48 47.27829 15.11615 17291 ft 344 kts 144°
2026-04-25 16:48 47.25884 15.13624 16735 ft 340 kts 144°
2026-04-25 16:48 47.23950 15.15622 16205 ft 338 kts 144°
2026-04-25 16:48 47.22035 15.17606 15660 ft 336 kts 144°
2026-04-25 16:49 47.20132 15.19582 15142 ft 333 kts 144°
2026-04-25 16:49 47.18242 15.21540 14624 ft 331 kts 144°
2026-04-25 16:49 47.16366 15.23479 14141 ft 329 kts 144°
2026-04-25 16:49 47.14509 15.25403 13642 ft 326 kts 144°
2026-04-25 16:50 47.12613 15.27215 13104 ft 324 kts 153°
2026-04-25 16:50 47.10513 15.28352 12598 ft 320 kts 168°
2026-04-25 16:50 47.08334 15.28957 12085 ft 318 kts 171°
2026-04-25 16:50 47.06173 15.29543 11593 ft 315 kts 171°
2026-04-25 16:51 47.04030 15.30129 11132 ft 311 kts 171°
2026-04-25 16:51 47.01912 15.30714 10674 ft 309 kts 171°
2026-04-25 16:51 46.99811 15.31300 10292 ft 303 kts 171°
2026-04-25 16:51 46.99148 15.31484 10248 ft 298 kts 171°
2026-04-25 16:52 46.95790 15.32414 9677 ft 289 kts 172°
2026-04-25 16:52 46.93853 15.32948 9285 ft 286 kts 172°
2026-04-25 16:52 46.91907 15.33486 8898 ft 283 kts 171°
2026-04-25 16:52 46.89987 15.34036 8465 ft 280 kts 169°
2026-04-25 16:53 46.86242 15.35291 7619 ft 273 kts 167°
2026-04-25 16:53 46.84397 15.35935 7193 ft 270 kts 167°
2026-04-25 16:53 46.82582 15.36564 6786 ft 266 kts 167°
2026-04-25 16:54 46.80834 15.37336 6382 ft 259 kts 149°
2026-04-25 16:54 46.79608 15.39143 5984 ft 249 kts 115°
2026-04-25 16:54 46.79198 15.41523 5596 ft 240 kts 88°
2026-04-25 16:54 46.79447 15.43856 5229 ft 228 kts 67°
2026-04-25 16:55 46.80215 15.45813 4858 ft 218 kts 46°
2026-04-25 16:55 46.81337 15.47213 4330 ft 209 kts 28°
2026-04-25 16:55 46.82635 15.47947 4037 ft 191 kts 11°
2026-04-25 16:55 46.83898 15.48083 3765 ft 180 kts 356°
2026-04-25 16:56 46.85131 15.47793 3539 ft 176 kts 351°
2026-04-25 16:56 46.86332 15.47468 3303 ft 175 kts 351°
2026-04-25 16:56 46.87493 15.47149 3074 ft 159 kts 351°
2026-04-25 16:56 46.88494 15.46876 2889 ft 137 kts 351°
2026-04-25 16:57 46.89382 15.46631 2658 ft 125 kts 351°
2026-04-25 16:57 46.89665 15.46553 2605 ft 121 kts 351°
2026-04-25 16:57 46.91086 15.46165 2385 ft 132 kts 351°
2026-04-25 16:57 46.91995 15.45917 2221 ft 133 kts 351°
2026-04-25 16:58 46.92915 15.45665 2052 ft 136 kts 351°
2026-04-25 16:58 46.93848 15.45410 1902 ft 135 kts 351°
2026-04-25 16:58 46.94767 15.45158 1716 ft 132 kts 350°
2026-04-25 16:58 46.95663 15.44910 1517 ft 134 kts 350°
2026-04-25 16:59 46.96574 15.44662 1370 ft 134 kts 350°
2026-04-25 16:59 46.97494 15.44409 1203 ft 136 kts 350°
2026-04-25 16:59 46.98405 15.44159 1100 ft 122 kts 349°
2026-04-25 16:59 46.99101 15.43965 1103 ft 77 kts 349°
2026-04-25 17:00 46.99439 15.43870 1109 ft 29 kts 349°
2026-04-25 17:00 46.99652 15.43844 1114 ft 30 kts
2026-04-25 17:00 46.99844 15.43910 1117 ft 20 kts 16°
2026-04-25 17:00 46.99933 15.44024 1115 ft 17 kts 75°
2026-04-25 17:01 46.99890 15.44151 1117 ft 17 kts 169°
2026-04-25 17:01 46.99771 15.44183 1110 ft 12 kts 169°
2026-04-25 17:01 46.99725 15.44195 1107 ft 10 kts 170°
2026-04-25 17:01 46.99659 15.44211 1112 ft 7 kts 171°
2026-04-25 17:02 46.99631 15.44239 1114 ft 9 kts 132°
2026-04-25 17:02 46.99595 15.44309 1106 ft 3 kts 127°
2026-04-25 17:02 46.99587 15.44324 1111 ft 0 kts 127°